Regional Weather Roundup
Issued by NWS Sioux Falls, SD

Home | Current Version | Previous Version | Text Only | Print | Product List | Glossary Off
Versions: 1 2 3 4 5 6 7 8 9 10 11 12 13 14 15 16 17 18 19 20 21 22 23 24 25 26 27 28 29 30 31 32 33 34 35 36 37 38 39 40 41 42 43 44 45 46 47 48 49 50

000
ASUS43 KFSD 182110
RWRFSD

WEATHER ROUNDUP FOR SE SOUTH DAKOTA/SW MINNESOTA/NW IOWA
NATIONAL WEATHER SERVICE SIOUX FALLS SD
400 PM CDT MON SEP 18 2017

NOTE: "FAIR" INDICATES FEW OR NO CLOUDS BELOW 12,000 FEET WITH NO
SIGNIFICANT WEATHER AND OR OBSTRUCTIONS TO VISIBILITY.


SDZ038>040-050-052>070-182200-
SOUTHEAST SOUTH DAKOTA

CITY           SKY/WX    TMP DP  RH WIND       PRES   REMARKS
BROOKINGS      PTSUNNY   65  60  84 SE10      29.87F
CHAMBERLAIN    SUNNY     81  59  47 S8G16     29.80F
HURON          SUNNY     79  57  46 SE10      29.80F
MADISON        FAIR      72  63  73 S13G18    29.86F
MITCHELL       SUNNY     81  57  43 S9        29.81F
SIOUX FALLS    PTSUNNY   74  63  68 S13       29.86F
WINNER         FAIR      80  60  50 S6        29.81F
YANKTON        PTSUNNY   73  63  70 S13       29.85F
$$

MNZ071-072-080-081-089-090-097-098-182200-
SOUTHWEST MINNESOTA

CITY           SKY/WX    TMP DP  RH WIND       PRES   REMARKS
FAIRMONT       RAIN      60  59  96 SE9       29.94F FOG
JACKSON        CLOUDY    61  61 100 CALM      29.93F FOG
LUVERNE        CLOUDY    70  59  68 S8G16     29.89F
MARSHALL       CLOUDY    65  59  81 S13       29.89F
MONTEVIDEO     MOSUNNY   70  57  64 S14       29.89F
PIPESTONE      PTSUNNY   66  63  88 S7        29.89F
REDWOOD FALLS  CLOUDY    62  57  83 SE12      29.91F
TRACY          CLOUDY    64  61  88 S10       29.90F
WORTHINGTON    CLOUDY    64  62  93 S8        29.92F
$$

IAZ001>003-012>014-020>022-031-032-NEZ013-014-SDZ071-182200-
NORTHWEST IOWA

CITY           SKY/WX    TMP DP  RH WIND       PRES   REMARKS
CHEROKEE       CLOUDY    71  68  90 S9        29.89F
DENISON        CLOUDY    72  66  83 S12G18    29.92F
ESTHERVILLE    CLOUDY    61  61 100 SE9       29.92F FOG
LE MARS        CLOUDY    72  66  83 S9G15     29.88F
ORANGE CITY    PTSUNNY   73  70  88 SW10      29.89F
SHELDON        CLOUDY    70  66  88 S7        29.88F
SIOUX CITY     CLOUDY    72  67  84 SW7       29.89F
SPENCER        CLOUDY    67  65  93 E5        29.91F
STORM LAKE     CLOUDY    70  64  83 S12G18    29.91F
$$

ABBREVIATIONS USED IN REMARKS
   TC - TEMPERATURE IN CELSIUS
  WCI - WIND CHILL INDEX
   HX - HEAT INDEX
  VSB - VISIBILITY





USA.gov is the U.S. government's official web portal to all federal, state and local government web resources and services.